Precipitable_Water
0.63 0.59 0.54 0.49 0.43 0.39 0.44 0.45 0.33 0.41 0.40 0.24 0.30 0.25 0.24 0.22 0.19 0.18 0.16 0.15 0.13 0.13 0.14 0.13 0.13 0.12 0.14 0.21 0.19 0.14 0.21 0.19 0.16 0.17 0.25 0.29 0.32 0.34 0.35 0.25 0.22 0.26 0.28 0.30
0.56 0.52 0.45 0.46 0.44 0.45 0.47 0.38 0.33 0.26 0.42 0.21 0.22 0.23 0.20 0.20 0.17 0.19 0.18 0.18 0.19 0.20 0.16 0.13 0.16 0.17 0.20 0.23 0.20 0.18 0.20 0.16 0.12 0.10 0.15 0.24 0.31 0.38 0.41 0.40 0.37 0.31 0.27 0.29
0.54 0.52 0.45 0.41 0.42 0.50 0.47 0.33 0.19 0.25 0.34 0.33 0.24 0.19 0.16 0.16 0.21 0.21 0.20 0.21 0.22 0.18 0.17 0.18 0.16 0.15 0.20 0.22 0.22 0.25 0.24 0.18 0.14 0.13 0.14 0.25 0.28 0.33 0.38 0.36 0.32 0.33 0.34 0.33
0.48 0.44 0.44 0.41 0.37 0.44 0.44 0.35 0.31 0.31 0.19 0.21 0.23 0.21 0.18 0.20 0.17 0.21 0.21 0.21 0.18 0.17 0.15 0.15 0.14 0.16 0.20 0.22 0.21 0.22 0.25 0.16 0.20 0.19 0.18 0.21 0.26 0.30 0.32 0.31 0.36 0.32 0.37 0.38
0.51 0.44 0.36 0.34 0.35 0.46 0.38 0.28 0.26 0.31 0.26 0.24 0.19 0.19 0.16 0.18 0.20 0.17 0.21 0.18 0.19 0.18 0.16 0.17 0.15 0.17 0.19 0.18 0.18 0.18 0.23 0.14 0.20 0.17 0.18 0.21 0.21 0.23 0.27 0.31 0.38 0.37 0.37 0.42
0.42 0.38 0.34 0.39 0.41 0.45 0.31 0.36 0.37 0.33 0.24 0.20 0.19 0.20 0.20 0.18 0.19 0.19 0.18 0.17 0.16 0.16 0.18 0.21 0.21 0.21 0.20 0.20 0.17 0.14 0.14 0.15 0.16 0.13 0.21 0.22 0.18 0.21 0.25 0.26 0.42 0.36 0.32 0.45
0.38 0.37 0.42 0.35 0.41 0.43 0.38 0.34 0.33 0.27 0.19 0.21 0.20 0.21 0.20 0.18 0.17 0.16 0.18 0.19 0.17 0.21 0.25 0.23 0.19 0.17 0.16 0.15 0.14 0.18 0.18 0.21 0.21 0.16 0.20 0.12 0.17 0.29 0.35 0.39 0.43 0.48 0.49 0.50
0.42 0.45 0.36 0.38 0.41 0.42 0.38 0.38 0.31 0.27 0.20 0.23 0.20 0.19 0.18 0.17 0.18 0.17 0.18 0.21 0.24 0.25 0.19 0.15 0.13 0.13 0.16 0.18 0.24 0.28 0.31 0.25 0.20 0.17 0.19 0.18 0.20 0.38 0.39 0.37 0.37 0.46 0.43 0.45
0.48 0.42 0.36 0.38 0.40 0.42 0.39 0.37 0.40 0.33 0.24 0.19 0.21 0.18 0.17 0.17 0.19 0.21 0.23 0.30 0.31 0.25 0.21 0.19 0.14 0.13 0.16 0.18 0.22 0.29 0.28 0.30 0.23 0.21 0.17 0.14 0.29 0.41 0.47 0.48 0.29 0.46 0.44 0.40
0.48 0.39 0.37 0.38 0.38 0.41 0.39 0.35 0.40 0.35 0.25 0.25 0.25 0.21 0.22 0.22 0.20 0.17 0.23 0.24 0.23 0.28 0.19 0.17 0.19 0.18 0.23 0.19 0.23 0.19 0.21 0.23 0.20 0.21 0.19 0.25 0.38 0.44 0.47 0.26 0.27 0.43 0.42 0.39
0.48 0.41 0.40 0.38 0.38 0.36 0.40 0.36 0.39 0.35 0.28 0.28 0.28 0.28 0.23 0.21 0.21 0.17 0.21 0.19 0.24 0.22 0.17 0.21 0.21 0.21 0.24 0.25 0.31 0.24 0.21 0.21 0.21 0.24 0.21 0.19 0.40 0.41 0.32 0.39 0.43 0.41 0.38 0.38
0.51 0.43 0.43 0.38 0.34 0.35 0.46 0.35 0.35 0.38 0.28 0.26 0.30 0.28 0.30 0.29 0.28 0.22 0.21 0.20 0.23 0.26 0.19 0.21 0.24 0.23 0.27 0.27 0.22 0.36 0.27 0.33 0.27 0.28 0.26 0.38 0.42 0.39 0.44 0.45 0.40 0.38 0.36 0.38
0.45 0.50 0.47 0.40 0.33 0.37 0.46 0.41 0.38 0.33 0.26 0.27 0.26 0.26 0.31 0.32 0.29 0.28 0.18 0.28 0.32 0.29 0.29 0.24 0.25 0.22 0.29 0.23 0.27 0.28 0.33 0.38 0.32 0.31 0.34 0.36 0.39 0.42 0.42 0.43 0.41 0.40 0.40 0.40
0.48 0.49 0.44 0.41 0.41 0.41 0.44 0.41 0.41 0.36 0.29 0.22 0.28 0.38 0.31 0.35 0.35 0.34 0.30 0.26 0.32 0.31 0.29 0.24 0.23 0.23 0.33 0.29 0.32 0.29 0.31 0.33 0.32 0.31 0.34 0.36 0.37 0.41 0.42 0.42 0.43 0.41 0.42 0.41
0.47 0.43 0.41 0.39 0.38 0.39 0.40 0.44 0.45 0.46 0.32 0.23 0.26 0.34 0.36 0.34 0.34 0.34 0.35 0.32 0.28 0.24 0.21 0.22 0.18 0.27 0.32 0.34 0.35 0.27 0.33 0.28 0.26 0.26 0.34 0.34 0.34 0.39 0.42 0.41 0.42 0.43 0.42 0.40
0.40 0.42 0.39 0.38 0.36 0.36 0.35 0.26 0.42 0.46 0.44 0.26 0.18 0.35 0.34 0.37 0.38 0.35 0.35 0.35 0.32 0.27 0.21 0.20 0.22 0.32 0.33 0.26 0.25 0.33 0.34 0.36 0.36 0.32 0.38 0.38 0.39 0.40 0.43 0.41 0.42 0.43 0.43 0.42
0.42 0.42 0.41 0.38 0.33 0.36 0.31 0.30 0.42 0.49 0.46 0.26 0.21 0.25 0.34 0.36 0.37 0.36 0.36 0.39 0.36 0.31 0.24 0.21 0.23 0.29 0.35 0.30 0.24 0.32 0.34 0.36 0.37 0.40 0.39 0.34 0.37 0.36 0.41 0.41 0.42 0.42 0.42 0.42
0.43 0.42 0.39 0.38 0.33 0.39 0.37 0.46 0.50 0.50 0.36 0.33 0.23 0.23 0.29 0.38 0.30 0.28 0.37 0.34 0.35 0.32 0.24 0.23 0.23 0.32 0.32 0.26 0.31 0.32 0.33 0.36 0.37 0.38 0.40 0.38 0.40 0.40 0.40 0.41 0.39 0.37 0.36 0.37
0.45 0.41 0.39 0.32 0.29 0.25 0.35 0.52 0.52 0.50 0.38 0.26 0.26 0.21 0.21 0.39 0.31 0.30 0.34 0.36 0.25 0.30 0.23 0.24 0.30 0.28 0.24 0.28 0.29 0.29 0.32 0.35 0.37 0.40 0.39 0.38 0.37 0.37 0.38 0.39 0.37 0.34 0.33 0.34
0.42 0.35 0.24 0.19 0.27 0.48 0.47 0.40 0.32 0.34 0.36 0.34 0.25 0.30 0.24 0.33 0.28 0.26 0.28 0.29 0.23 0.22 0.26 0.32 0.26 0.25 0.31 0.32 0.31 0.32 0.36 0.41 0.41 0.37 0.36 0.38 0.37 0.37 0.36 0.35 0.35 0.34 0.33 0.32
0.31 0.22 0.24 0.40 0.48 0.40 0.36 0.28 0.26 0.28 0.25 0.29 0.28 0.27 0.24 0.35 0.23 0.23 0.30 0.27 0.28 0.22 0.27 0.26 0.23 0.21 0.25 0.31 0.32 0.36 0.38 0.41 0.41 0.41 0.40 0.40 0.36 0.34 0.32 0.31 0.31 0.31 0.30 0.30
0.27 0.38 0.46 0.44 0.37 0.32 0.26 0.24 0.27 0.26 0.22 0.27 0.25 0.25 0.27 0.32 0.35 0.29 0.32 0.25 0.27 0.20 0.34 0.26 0.20 0.25 0.30 0.30 0.34 0.36 0.37 0.37 0.37 0.37 0.35 0.34 0.33 0.32 0.30 0.30 0.29 0.29 0.30 0.29
0.39 0.37 0.31 0.30 0.29 0.22 0.19 0.17 0.20 0.20 0.24 0.26 0.27 0.24 0.30 0.32 0.35 0.31 0.31 0.26 0.21 0.35 0.26 0.23 0.26 0.30 0.32 0.33 0.34 0.34 0.34 0.34 0.33 0.31 0.31 0.31 0.31 0.31 0.29 0.28 0.28 0.28 0.28 0.28
0.28 0.27 0.21 0.23 0.20 0.21 0.22 0.24 0.25 0.28 0.30 0.27 0.27 0.25 0.26 0.32 0.28 0.27 0.21 0.25 0.30 0.25 0.22 0.23 0.28 0.31 0.33 0.33 0.33 0.31 0.30 0.31 0.30 0.29 0.29 0.28 0.28 0.28 0.29 0.29 0.28 0.27 0.24 0.22
0.29 0.29 0.21 0.21 0.30 0.30 0.31 0.33 0.32 0.33 0.35 0.33 0.27 0.25 0.26 0.25 0.24 0.27 0.26 0.24 0.23 0.26 0.24 0.28 0.30 0.32 0.31 0.31 0.31 0.30 0.29 0.28 0.27 0.28 0.27 0.28 0.28 0.27 0.25 0.23 0.21 0.18 0.17 0.16
0.33 0.31 0.26 0.30 0.28 0.27 0.29 0.27 0.27 0.32 0.33 0.36 0.34 0.29 0.25 0.25 0.27 0.26 0.24 0.24 0.22 0.25 0.27 0.29 0.29 0.28 0.29 0.30 0.29 0.29 0.29 0.28 0.28 0.28 0.28 0.27 0.23 0.20 0.19 0.19 0.18 0.17 0.17 0.16
0.29 0.26 0.31 0.29 0.27 0.26 0.27 0.27 0.28 0.34 0.33 0.28 0.30 0.24 0.24 0.34 0.26 0.24 0.29 0.25 0.26 0.28 0.30 0.30 0.30 0.30 0.30 0.30 0.30 0.30 0.29 0.29 0.29 0.26 0.23 0.21 0.20 0.21 0.20 0.18 0.18 0.17 0.15 0.14
Wind_Speed
13 13 14 15 14 14 14 13 12 13 13 12 13 11 9 10 7 8 8 10 10 11 11 13 13 15 17 17 19 19 20 23 25 29 31 27 24 20 16 18 16 15 12 11
12 13 13 14 14 14 14 12 12 13 12 10 10 10 8 7 8 6 7 8 8 9 11 11 12 14 17 16 18 17 20 20 22 25 23 18 16 18 19 17 14 19 16 13
12 13 13 14 14 14 12 11 10 11 11 10 9 9 9 8 7 6 8 8 9 10 10 12 14 15 16 18 19 17 18 19 21 22 23 19 21 22 19 14 13 12 15 13
12 13 14 14 14 13 12 10 10 10 9 8 8 7 7 6 7 7 10 8 9 10 12 15 17 19 21 21 20 18 16 18 20 24 26 26 25 25 22 19 22 16 12 12
14 13 13 13 13 11 10 10 9 8 7 7 7 6 8 7 6 7 6 8 12 14 15 16 19 21 21 20 17 16 15 15 18 20 21 26 28 25 23 21 18 19 15 13
14 13 13 13 12 10 10 9 8 8 7 8 7 7 6 5 5 8 9 11 11 14 17 18 21 23 24 23 21 20 20 16 13 13 15 18 22 21 22 18 14 11 13 10
14 14 14 13 11 10 10 9 8 7 7 7 7 5 3 5 5 7 11 13 13 14 18 20 21 22 20 20 21 20 19 14 11 11 12 14 16 10 14 12 5 8 9 7
15 15 14 13 11 9 9 8 7 6 6 6 5 4 5 6 7 8 9 12 11 15 17 15 13 11 10 13 17 17 19 14 10 8 7 10 11 6 6 15 7 3 3 1
17 15 14 13 11 9 8 7 6 6 6 4 2 3 4 5 7 7 8 11 13 14 11 9 7 8 9 9 11 9 7 14 13 5 2 5 6 11 14 13 11 4 6 7
18 16 15 13 12 9 7 7 6 7 5 4 3 3 3 4 6 7 8 12 12 10 8 6 5 5 7 6 7 1 8 9 11 8 6 6 7 10 15 14 11 7 5 5
19 17 16 13 12 10 7 7 6 7 5 4 3 4 3 4 5 6 10 9 10 9 6 3 2 1 4 9 2 2 5 3 4 5 5 1 11 2 8 7 5 5 4 4
19 17 15 14 12 11 8 6 6 7 5 6 6 7 7 6 6 6 9 8 8 6 3 2 2 1 3 9 5 5 2 2 5 5 6 5 6 6 4 3 3 2 2 3
19 17 15 14 13 12 8 7 6 5 5 5 5 6 6 6 6 6 5 7 7 5 3 4 4 3 2 3 3 6 5 6 2 2 6 7 6 6 5 3 2 1 0 1
19 17 15 15 13 12 10 7 6 6 6 5 6 6 8 8 7 7 7 8 8 7 6 6 5 4 3 3 4 3 5 5 2 4 4 4 5 5 4 4 3 2 2 1
19 18 16 15 13 12 11 9 8 7 6 6 8 10 10 9 8 8 9 9 8 7 5 7 6 6 3 3 1 4 5 4 2 2 3 2 2 2 3 4 4 4 3 2
19 17 16 14 13 12 10 9 9 9 8 8 8 9 9 9 9 11 11 11 9 7 6 8 7 7 5 4 3 2 5 4 3 0 1 3 3 2 2 2 2 3 4 4
19 17 15 13 12 11 9 8 9 9 9 8 9 9 7 9 10 11 12 11 10 8 8 9 8 7 5 4 3 2 4 4 3 2 3 2 1 2 0 1 2 3 4 4
18 16 14 12 12 11 10 9 6 6 6 7 8 9 8 9 11 11 10 10 10 10 10 9 9 7 6 3 2 1 2 3 2 2 3 4 3 2 1 1 1 3 3 4
18 15 13 11 11 11 10 9 8 8 8 7 7 7 8 8 8 8 7 6 6 8 9 10 8 6 4 3 3 2 4 4 3 4 5 4 3 1 1 1 2 2 3 4
17 14 11 11 11 9 10 8 8 8 9 10 10 10 10 6 5 3 1 2 4 6 9 9 8 6 5 3 3 3 3 2 2 6 5 5 4 1 1 2 3 4 5 5
14 13 11 10 12 10 8 7 7 7 7 8 10 10 7 4 3 3 3 4 4 4 5 8 7 5 5 4 1 1 2 3 5 5 4 2 2 2 2 3 4 6 7 8
16 12 11 12 10 9 8 7 7 7 7 7 5 5 9 7 6 5 3 3 4 4 6 5 5 4 5 4 3 3 3 3 3 2 2 1 0 2 3 5 6 7 8 10
15 12 11 10 10 9 8 7 6 5 5 4 5 8 10 7 6 4 4 3 4 3 4 4 2 6 6 6 5 5 4 4 3 2 1 1 2 4 5 6 8 8 9 10
14 12 12 11 9 9 8 6 5 5 4 7 10 9 8 7 5 4 4 4 2 2 3 3 5 7 6 6 5 4 3 2 1 0 2 3 4 5 5 6 7 8 9 10
12 12 12 12 8 7 6 4 5 6 8 9 10 9 8 6 5 4 2 2 2 1 3 4 6 6 6 5 4 3 2 1 1 2 2 2 3 4 5 6 7 9 10 12
11 11 10 10 10 8 7 6 9 10 10 10 10 8 7 6 4 3 4 1 2 2 2 4 5 4 4 3 3 3 2 1 1 1 1 2 3 4 6 8 10 12 14 16
11 11 10 7 7 7 9 11 12 12 12 11 8 7 7 4 3 3 2 2 2 2 3 3 3 3 3 3 3 3 3 2 1 1 2 4 6 7 10 12 14 16 18 20
Wind_Direction
222 218 209 209 210 209 203 206 211 205 206 210 218 224 227 232 235 243 248 254 259 265 277 277 278 280 282 296 295 288 282 276 275 271 261 264 264 260 260 251 249 252 265 265
208 205 200 196 195 196 200 202 200 205 204 210 215 211 215 230 236 249 253 258 270 279 278 282 282 294 296 300 297 290 290 280 282 276 260 249 248 258 259 274 248 248 256 259
198 192 193 191 188 188 193 198 196 199 202 212 207 207 214 225 250 255 258 269 271 279 284 287 288 295 293 301 299 290 286 275 269 265 260 258 252 264 263 251 253 260 233 244
192 190 186 186 188 190 190 192 198 198 204 209 200 216 232 209 246 256 255 271 272 279 286 295 291 298 300 300 296 296 286 278 278 268 261 254 250 253 255 263 260 251 266 278
185 184 186 188 187 189 188 191 194 200 193 197 196 225 234 247 232 263 274 274 288 289 292 297 299 300 298 291 289 291 293 286 286 278 267 248 246 247 249 256 258 246 244 256
188 189 185 182 182 187 192 193 196 194 200 206 211 229 229 251 265 280 279 291 297 299 299 300 296 291 286 281 279 278 281 281 279 270 277 243 228 233 239 239 250 246 233 230
188 185 182 183 185 187 192 197 200 197 204 206 217 205 236 264 281 284 298 303 302 302 306 303 297 290 281 276 273 268 267 266 251 266 275 223 207 254 241 174 182 160 125 173
186 183 184 183 183 184 186 194 193 197 199 218 207 240 264 282 288 285 290 300 305 312 311 308 305 301 296 290 277 271 252 232 240 247 248 240 221 229 218 210 197 237 240 289
188 187 187 186 187 185 185 187 197 195 198 241 274 227 252 274 302 303 311 313 313 313 312 312 297 307 308 321 320 303 193 198 202 210 221 203 254 270 253 234 201 241 252 275
189 190 187 187 188 189 193 197 203 198 201 244 240 250 264 298 308 304 320 323 322 325 318 304 298 307 334 336 313 83 145 166 196 213 217 253 322 284 236 200 209 230 258 288
188 187 188 190 191 194 197 201 203 200 215 242 242 255 272 300 319 320 322 328 327 328 328 297 313 356 357 1 41 137 144 186 213 233 258 250 356 103 153 181 191 219 257 263
189 190 192 195 197 197 198 204 210 212 226 237 249 261 265 279 303 316 326 326 329 321 317 256 258 290 330 360 56 52 63 95 83 81 107 73 57 92 108 145 174 191 221 239
192 193 196 199 199 199 200 205 209 219 227 242 244 261 258 272 287 299 318 337 335 318 276 222 233 253 300 351 21 15 7 17 160 97 72 72 61 72 82 86 116 162 149 204
191 194 197 196 199 201 206 213 222 227 237 243 257 271 271 270 274 281 294 304 314 300 271 230 227 236 249 298 343 14 351 348 305 120 88 109 60 56 69 82 86 73 40 1
194 195 196 198 202 205 211 222 227 232 242 261 266 278 276 259 265 276 280 293 298 308 266 226 238 236 248 273 263 6 350 343 327 245 313 134 65 69 77 69 67 52 30 8
191 193 195 199 203 207 216 231 235 241 250 260 273 280 279 266 259 275 280 279 279 278 253 234 234 232 235 261 257 316 346 350 353 196 141 135 132 83 76 75 65 25 19 5
189 192 194 200 205 209 219 230 245 240 243 262 273 279 283 268 273 279 283 274 265 259 249 230 225 225 223 248 261 262 312 322 307 268 198 159 234 211 57 45 67 40 9 353
188 191 196 202 205 210 221 227 232 224 246 260 270 273 282 283 285 285 279 270 256 252 234 224 217 224 215 222 198 254 288 315 302 238 210 186 186 186 214 193 30 2 348 342
187 190 193 201 209 214 221 224 236 247 256 266 263 270 284 294 291 290 281 259 247 225 213 201 194 205 201 198 205 277 294 301 252 236 201 191 178 141 46 357 334 333 332 328
184 190 198 205 210 202 207 231 244 254 256 259 264 273 282 278 288 280 267 186 186 177 187 181 188 196 191 218 259 273 275 280 187 169 158 181 181 202 298 314 314 314 318 319
191 192 197 199 186 202 218 231 243 248 260 263 275 258 244 237 164 165 145 136 144 153 174 170 188 192 204 201 209 164 78 95 130 138 140 145 202 240 281 308 315 313 313 309
186 185 184 183 201 212 224 227 240 245 265 269 252 226 176 163 151 141 140 149 136 155 158 170 190 195 184 180 160 148 136 124 115 124 118 127 279 302 312 310 312 313 311 308
182 190 191 200 206 215 215 219 239 252 256 240 173 153 155 155 152 147 150 152 160 139 165 174 179 160 159 154 145 133 123 121 118 117 86 352 332 322 316 316 312 312 314 313
191 195 199 206 208 217 212 222 236 226 185 158 158 157 153 157 143 149 149 169 166 193 164 154 161 155 148 145 144 134 132 130 116 345 318 312 317 321 325 328 324 323 322 321
197 199 204 204 197 195 200 220 196 175 161 153 155 157 156 159 159 161 164 143 167 53 129 145 151 155 159 161 166 165 179 238 297 304 324 343 344 348 347 343 338 334 329 325
193 193 189 196 200 208 217 199 178 169 165 159 157 164 170 178 167 166 187 223 56 149 155 153 161 166 172 180 196 213 231 220 127 74 30 14 7 351 341 337 332 327 324 321
180 180 183 192 205 212 196 184 176 170 168 167 166 174 182 164 181 200 201 202 211 171 167 180 179 176 174 173 162 152 150 140 121 66 360 340 334 331 329 326 320 319 320 319